When you browse on this site, cookies collect data to enhance your experience and personalize the content and advertising you see.
Visit our Privacy Policy to learn more. By continuing to use the site, you agree to this use of cookies and data.
  • în România
  • Lista ţărilor
  • Pe 7 zile
  • Temperatura apei
  • Hartă satelitară
  • Meteo pe hartă
  • Widget-uri
  • user-avatar
    Intrare

    Meteo pe oră la Zmeyka

    Astăzi, 17 Noiembrie, Sâmbătă

    Timp Temperatura Precipitaţii Vânt Presiune Umiditate
    00:00 +4°C° 0.1 mm 4 m/s 735 mmHg 89%
    01:00 +4°C° 0 mm 4 m/s 735 mmHg 89%
    02:00 +4°C° 0 mm 4 m/s 736 mmHg 89%
    03:00 +4°C° 0 mm 2 m/s 736 mmHg 86%
    04:00 +4°C° 0.1 mm 2 m/s 736 mmHg 87%
    05:00 +3°C° 0.1 mm 3 m/s 736 mmHg 88%
    06:00 +3°C° 0.1 mm 3 m/s 736 mmHg 89%
    07:00 +3°C° 0.7 mm 3 m/s 736 mmHg 89%
    08:00 +3°C° 0.7 mm 3 m/s 736 mmHg 90%
    09:00 +4°C° 0.7 mm 2 m/s 737 mmHg 91%
    10:00 +4°C° 1.3 mm 2 m/s 737 mmHg 92%
    11:00 +4°C° 1.3 mm 2 m/s 737 mmHg 93%
    12:00 +4°C° 1.3 mm 2 m/s 737 mmHg 94%
    13:00 +5°C° 0.2 mm 2 m/s 737 mmHg 93%
    14:00 +6°C° 0.2 mm 1 m/s 737 mmHg 93%
    15:00 +6°C° 0.2 mm 1 m/s 738 mmHg 93%
    16:00 +6°C° 0 mm 1 m/s 738 mmHg 93%
    17:00 +5°C° 0 mm 1 m/s 738 mmHg 93%
    18:00 +5°C° 0 mm 1 m/s 739 mmHg 93%
    19:00 +5°C° 0 mm 1 m/s 738 mmHg 93%
    20:00 +5°C° 0 mm 1 m/s 738 mmHg 92%
    21:00 +5°C° 0 mm 1 m/s 738 mmHg 91%
    22:00 +5°C° 0.1 mm 1 m/s 738 mmHg 91%
    23:00 +5°C° 0.1 mm 1 m/s 738 mmHg 91%

    Mâine, 18 Noiembrie, Duminică

    Timp Temperatura Precipitaţii Vânt Presiune Umiditate
    00:00 +5°C° 0.1 mm 1 m/s 738 mmHg 91%
    01:00 +5°C° 0.1 mm 1 m/s 738 mmHg 90%
    02:00 +5°C° 0.1 mm 1 m/s 738 mmHg 90%
    03:00 +4°C° 0.1 mm 0 m/s 738 mmHg 89%
    04:00 +4°C° 0.2 mm 0 m/s 738 mmHg 89%
    05:00 +4°C° 0.2 mm 0 m/s 737 mmHg 88%
    06:00 +4°C° 0.2 mm 0 m/s 737 mmHg 88%
    07:00 +4°C° 0 mm 0 m/s 737 mmHg 86%
    08:00 +5°C° 0 mm 0 m/s 737 mmHg 85%
    09:00 +5°C° 0 mm 0 m/s 737 mmHg 83%
    10:00 +7°C° 0 mm 1 m/s 736 mmHg 79%
    11:00 +8°C° 0 mm 1 m/s 736 mmHg 75%
    12:00 +9°C° 0 mm 1 m/s 736 mmHg 71%
    13:00 +10°C° 0 mm 1 m/s 736 mmHg 71%
    14:00 +10°C° 0 mm 1 m/s 736 mmHg 72%
    15:00 +9°C° 0 mm 2 m/s 736 mmHg 73%
    16:00 +8°C° 0 mm 2 m/s 736 mmHg 78%
    17:00 +7°C° 0 mm 2 m/s 736 mmHg 83%
    18:00 +6°C° 0 mm 2 m/s 736 mmHg 87%
    19:00 +6°C° 0 mm 1 m/s 736 mmHg 88%
    20:00 +6°C° 0 mm 1 m/s 736 mmHg 89%
    21:00 +6°C° 0 mm 1 m/s 736 mmHg 90%
    22:00 +5°C° 0 mm 1 m/s 736 mmHg 89%
    23:00 +5°C° 0 mm 1 m/s 736 mmHg 89%

    Poimâine, 19 Noiembrie, Luni

    Timp Temperatura Precipitaţii Vânt Presiune Umiditate
    00:00 +5°C° 0 mm 1 m/s 736 mmHg 89%
    01:00 +5°C° 0 mm 1 m/s 736 mmHg 88%
    02:00 +5°C° 0 mm 1 m/s 736 mmHg 88%
    03:00 +5°C° 0 mm 1 m/s 736 mmHg 87%
    04:00 +4°C° 0 mm 2 m/s 736 mmHg 87%
    05:00 +4°C° 0 mm 2 m/s 737 mmHg 87%
    06:00 +4°C° 0 mm 2 m/s 737 mmHg 87%
    07:00 +4°C° 0 mm 2 m/s 737 mmHg 86%
    08:00 +4°C° 0 mm 3 m/s 737 mmHg 85%
    09:00 +4°C° 0 mm 3 m/s 737 mmHg 83%
    10:00 +5°C° 0 mm 3 m/s 736 mmHg 81%
    11:00 +6°C° 0 mm 4 m/s 736 mmHg 78%
    12:00 +6°C° 0 mm 4 m/s 735 mmHg 76%
    13:00 +6°C° 0 mm 4 m/s 735 mmHg 76%
    14:00 +7°C° 0 mm 5 m/s 735 mmHg 76%
    15:00 +7°C° 0 mm 5 m/s 735 mmHg 76%
    16:00 +6°C° 0 mm 5 m/s 735 mmHg 79%
    17:00 +5°C° 0 mm 5 m/s 736 mmHg 81%
    18:00 +5°C° 0 mm 5 m/s 736 mmHg 83%
    19:00 +5°C° 0 mm 5 m/s 736 mmHg 83%
    20:00 +3°C° 0 mm 5 m/s 736 mmHg 83%
    21:00 +3°C° 0 mm 5 m/s 736 mmHg 83%
    22:00 +3°C° 0 mm 5 m/s 735 mmHg 83%
    23:00 +4°C° 0 mm 4 m/s 735 mmHg 83%

    20 Noiembrie, Marţi

    Timp Temperatura Precipitaţii Vânt Presiune Umiditate
    00:00 +4°C° 0 mm 4 m/s 735 mmHg 83%
    01:00 +4°C° 0 mm 4 m/s 735 mmHg 83%
    02:00 +4°C° 0 mm 3 m/s 735 mmHg 84%
    03:00 +4°C° 0 mm 3 m/s 736 mmHg 84%
    04:00 +4°C° 0.1 mm 3 m/s 736 mmHg 85%
    05:00 +5°C° 0.1 mm 2 m/s 736 mmHg 86%
    06:00 +5°C° 0.1 mm 2 m/s 736 mmHg 87%
    07:00 +6°C° 0.1 mm 2 m/s 736 mmHg 86%
    08:00 +6°C° 0.1 mm 2 m/s 736 mmHg 85%
    09:00 +6°C° 0.1 mm 2 m/s 736 mmHg 84%
    10:00 +7°C° 0.2 mm 2 m/s 736 mmHg 82%
    11:00 +8°C° 0.2 mm 2 m/s 736 mmHg 80%
    12:00 +8°C° 0.2 mm 2 m/s 736 mmHg 78%
    13:00 +9°C° 0 mm 2 m/s 735 mmHg 76%
    14:00 +9°C° 0 mm 2 m/s 735 mmHg 74%
    15:00 +10°C° 0 mm 2 m/s 735 mmHg 72%
    16:00 +9°C° 0 mm 2 m/s 735 mmHg 74%
    17:00 +9°C° 0 mm 2 m/s 735 mmHg 76%
    18:00 +8°C° 0 mm 2 m/s 735 mmHg 78%
    19:00 +8°C° 0 mm 2 m/s 735 mmHg 77%
    20:00 +9°C° 0 mm 1 m/s 735 mmHg 75%
    21:00 +9°C° 0 mm 1 m/s 735 mmHg 74%
    22:00 +9°C° 0 mm 1 m/s 735 mmHg 73%
    23:00 +9°C° 0 mm 1 m/s 735 mmHg 73%

    21 Noiembrie, Miercuri

    Timp Temperatura Precipitaţii Vânt Presiune Umiditate
    00:00 +9°C° 0 mm 1 m/s 734 mmHg 72%
    01:00 +9°C° 0 mm 1 m/s 734 mmHg 73%
    02:00 +9°C° 0 mm 1 m/s 734 mmHg 74%
    03:00 +9°C° 0 mm 1 m/s 734 mmHg 75%
    04:00 +9°C° 0 mm 1 m/s 734 mmHg 75%
    05:00 +9°C° 0 mm 1 m/s 733 mmHg 76%
    06:00 +8°C° 0 mm 1 m/s 733 mmHg 77%
    07:00 +8°C° 0.1 mm 0 m/s 733 mmHg 76%
    08:00 +8°C° 0.1 mm 0 m/s 733 mmHg 76%
    09:00 +9°C° 0.1 mm 0 m/s 732 mmHg 75%
    10:00 +10°C° 0.1 mm 0 m/s 732 mmHg 73%
    11:00 +11°C° 0.1 mm 0 m/s 732 mmHg 71%
    12:00 +11°C° 0.1 mm 0 m/s 731 mmHg 69%
    13:00 +11°C° 0 mm 0 m/s 731 mmHg 70%
    14:00 +12°C° 0 mm 1 m/s 731 mmHg 72%
    15:00 +12°C° 0 mm 1 m/s 731 mmHg 73%
    16:00 +12°C° 0 mm 1 m/s 731 mmHg 78%
    17:00 +10°C° 0 mm 0 m/s 731 mmHg 84%
    18:00 +9°C° 0 mm 0 m/s 731 mmHg 89%
    19:00 +9°C° 0.1 mm 0 m/s 730 mmHg 90%
    20:00 +8°C° 0.1 mm 0 m/s 730 mmHg 91%
    21:00 +8°C° 0.1 mm 0 m/s 730 mmHg 91%
    22:00 +9°C° 0.2 mm 1 m/s 730 mmHg 92%
    23:00 +9°C° 0.2 mm 1 m/s 730 mmHg 92%

    22 Noiembrie, Joi

    Timp Temperatura Precipitaţii Vânt Presiune Umiditate
    00:00 +9°C° 0.2 mm 1 m/s 730 mmHg 92%
    01:00 +8°C° 0.6 mm 1 m/s 730 mmHg 92%
    02:00 +7°C° 0.6 mm 2 m/s 730 mmHg 92%
    03:00 +7°C° 0.6 mm 2 m/s 729 mmHg 92%
    04:00 +6°C° 1.2 mm 2 m/s 729 mmHg 92%
    05:00 +6°C° 1.2 mm 2 m/s 730 mmHg 92%
    06:00 +5°C° 1.2 mm 2 m/s 730 mmHg 92%
    07:00 +5°C° 1.3 mm 2 m/s 730 mmHg 92%
    08:00 +4°C° 1.3 mm 2 m/s 730 mmHg 91%
    09:00 +4°C° 1.3 mm 2 m/s 730 mmHg 91%
    10:00 +4°C° 1.3 mm 2 m/s 730 mmHg 92%
    11:00 +3°C° 1.3 mm 2 m/s 730 mmHg 94%
    12:00 +3°C° 1.3 mm 2 m/s 730 mmHg 95%
    13:00 +3°C° 1 mm 2 m/s 730 mmHg 95%
    14:00 +4°C° 1 mm 1 m/s 730 mmHg 96%
    15:00 +4°C° 1 mm 1 m/s 730 mmHg 96%
    16:00 +3°C° 1.1 mm 1 m/s 730 mmHg 96%
    17:00 +3°C° 1.1 mm 1 m/s 730 mmHg 96%
    18:00 +3°C° 1.1 mm 1 m/s 731 mmHg 96%
    19:00 +3°C° 0.8 mm 1 m/s 731 mmHg 96%
    20:00 +3°C° 0.8 mm 1 m/s 731 mmHg 96%
    21:00 +2°C° 0.8 mm 1 m/s 731 mmHg 96%
    22:00 +2°C° 0.6 mm 1 m/s 731 mmHg 96%
    23:00 +2°C° 0.6 mm 1 m/s 731 mmHg 96%
    Arată mai mult